Weather History for KLXN - December, 2011

Change the Weather History Date:

Sunday, December 4, 2011

  Actual Average Record
Temperature  
Mean Temperature 10 °F -  
Max Temperature 22 °F 42 °F 64 °F (1998)
Min Temperature -2 °F 19 °F -2 °F (2011)
Degree Days  
Heating Degree Days 55    
Moisture  
Dew Point 8 °F    
Average Humidity 86    
Maximum Humidity 92    
Minimum Humidity 77    
Precipitation  
Precipitation 0.00 in - - ()
Sea Level Pressure  
Sea Level Pressure 30.14 in    
Wind  
Wind Speed 5 mph (WNW)    
Max Wind Speed 12 mph    
Max Gust Speed -    
Visibility 9 miles    
Events Fog , Snow    
Averages and records for this station are not official NWS values.
T = Trace of Precipitation, MM = Missing Value Source: NWS Daily Summary

Daily Weather History Graph

Daily Weather History Graph

Search for Another Location

Airport or City:

Trip Planner

Search our weather history database for the weather conditions in past years. The results will help you decide how hot, cold, wet, or windy it might be!

Date:

Astronomy

Dec. 04, 2011 Rise Set
Actual Time 7:46 AM CST 5:11 PM CST
Civil Twilight 7:16 AM CST 5:42 PM CST
Nautical Twilight 6:42 AM CST 6:16 PM CST
Astronomical Twilight 6:08 AM CST 6:49 PM CST
Moon 1:44 PM CST (12/4) 2:11 AM CST (12/4)
Length of Visible Light 10h 26m
Length of Day
9h 24m
Waxing Gibbous, 72% of the Moon is Illuminated
Dec 4
Waxing Gibbous
Dec 10
Full
Dec 17
Last Quarter
Dec 24
New
Jan 1
First Quarter

Hourly Weather History & Observations

Time (CST) Temp. Windchill Dew Point Humidity Pressure Visibility Wind Dir Wind Speed Gust Speed Precip Events Conditions
12:15 AM 11.8 °F -0.7 °F 9.3 °F 90% 30.08 in 10.0 mi NW 9.2 mph - N/A   Clear
12:35 AM 11.5 °F 2.1 °F 9.0 °F 90% 30.07 in 10.0 mi NW 5.8 mph - N/A   Clear
12:55 AM 11.8 °F 3.9 °F 9.9 °F 92% 30.08 in 10.0 mi West 4.6 mph - N/A   Clear
1:15 AM 10.2 °F -1.7 °F 7.7 °F 90% 30.08 in 10.0 mi West 8.1 mph - N/A   Clear
1:35 AM 10.2 °F -1.7 °F 8.4 °F 92% 30.08 in 10.0 mi West 8.1 mph - N/A   Clear
1:55 AM 7.5 °F -2.6 °F 5.4 °F 91% 30.09 in 10.0 mi WSW 5.8 mph - N/A   Clear
2:15 AM 7.5 °F -2.6 °F 5.4 °F 91% 30.09 in 2.5 mi West 5.8 mph - N/A   Clear
2:35 AM 5.9 °F -1.1 °F 3.0 °F 88% 30.11 in 1.2 mi West 3.5 mph - N/A   Mist
2:55 AM 8.1 °F -0.5 °F 5.0 °F 87% 30.10 in 0.5 mi WNW 4.6 mph - N/A Fog Light Freezing Fog
3:15 AM 5.5 °F -6.3 °F 2.7 °F 88% 30.09 in 0.2 mi NW 6.9 mph - N/A Fog Light Freezing Fog
3:35 AM 2.3 °F -10.2 °F -0.9 °F 86% 30.09 in 7.0 mi NNW 6.9 mph - N/A   Clear
3:55 AM 1.2 °F -11.5 °F -2.2 °F 86% 30.09 in 10.0 mi NNW 6.9 mph - N/A   Clear
4:15 AM 1.8 °F -9.5 °F -1.5 °F 86% 30.09 in 10.0 mi NW 5.8 mph - N/A   Clear
4:35 AM 0.9 °F -6.9 °F -2.6 °F 86% 30.09 in 10.0 mi WNW 3.5 mph - N/A   Clear
4:55 AM 0.7 °F -9.1 °F -2.7 °F 86% 30.09 in 10.0 mi West 4.6 mph - N/A   Clear
5:15 AM 2.5 °F -5.0 °F -0.8 °F 86% 30.09 in 10.0 mi West 3.5 mph - N/A   Clear
5:35 AM 2.5 °F - -1.1 °F 85% 30.09 in 10.0 mi Calm Calm - N/A   Clear
6:15 AM 1.0 °F -8.7 °F -2.9 °F 83% 30.09 in 10.0 mi West 4.6 mph - N/A   Clear
6:35 AM 0.7 °F -10.7 °F -2.7 °F 86% 30.09 in 10.0 mi West 5.8 mph - N/A   Clear
6:55 AM -1.7 °F -11.8 °F -5.4 °F 84% 30.10 in 10.0 mi WNW 4.6 mph - N/A   Clear
7:15 AM -0.8 °F - -4.5 °F 84% 30.11 in 10.0 mi Calm Calm - N/A   Clear
7:35 AM -1.7 °F - -5.4 °F 84% 30.11 in 10.0 mi Calm Calm - N/A   Clear
7:55 AM -1.3 °F - -5.3 °F 83% 30.11 in 5.0 mi Calm Calm - N/A   Clear
8:15 AM -1.1 °F -11.2 °F -4.9 °F 84% 30.11 in 7.0 mi West 4.6 mph - N/A   Clear
8:35 AM -2.7 °F - -6.9 °F 82% 30.12 in 10.0 mi Calm Calm - N/A   Clear
8:55 AM -1.7 °F -9.7 °F -5.4 °F 84% 30.13 in 10.0 mi WNW 3.5 mph - N/A   Clear
9:15 AM -0.4 °F - -4.2 °F 84% 30.13 in 10.0 mi Calm Calm - N/A   Clear
9:35 AM 3.7 °F -3.6 °F 0.7 °F 87% 30.14 in 10.0 mi WNW 3.5 mph - N/A   Clear
9:55 AM 5.9 °F -3.0 °F 3.0 °F 88% 30.15 in 4.0 mi West 4.6 mph - N/A Snow Light Snow
10:15 AM 7.7 °F -0.9 °F 5.0 °F 89% 30.15 in 10.0 mi West 4.6 mph - N/A   Clear
10:35 AM 9.9 °F 1.6 °F 7.5 °F 90% 30.16 in 10.0 mi WNW 4.6 mph - N/A   Clear
10:55 AM 11.5 °F 5.3 °F 9.1 °F 90% 30.16 in 10.0 mi West 3.5 mph - N/A   Clear
11:15 AM 12.6 °F 6.5 °F 10.2 °F 90% 30.16 in 10.0 mi WNW 3.5 mph - N/A   Clear
11:35 AM 13.6 °F - 11.3 °F 90% 30.16 in 10.0 mi Calm Calm - N/A   Clear
11:55 AM 15.4 °F - 13.5 °F 92% 30.15 in 10.0 mi Calm Calm - N/A   Clear
12:15 PM 17.4 °F 12.1 °F 14.9 °F 90% 30.14 in 10.0 mi West 3.5 mph - N/A   Clear
12:35 PM 19.4 °F - 16.5 °F 89% 30.14 in 10.0 mi Calm Calm - N/A   Clear
12:55 PM 20.1 °F - 16.7 °F 87% 30.14 in 10.0 mi Calm Calm - N/A   Clear
1:15 PM 21.4 °F - 16.7 °F 82% 30.13 in 10.0 mi Calm Calm - N/A   Clear
1:35 PM 22.1 °F - 16.0 °F 77% 30.13 in 10.0 mi Calm Calm - N/A   Scattered Clouds
1:55 PM 22.1 °F - 16.2 °F 78% 30.13 in 10.0 mi Calm Calm - N/A   Clear
2:15 PM 21.7 °F - 16.3 °F 80% 30.13 in 10.0 mi Calm Calm - N/A   Clear
2:35 PM 21.2 °F - 16.2 °F 81% 30.12 in 10.0 mi Calm Calm - N/A   Clear
2:55 PM 22.1 °F - 16.7 °F 80% 30.13 in 10.0 mi Calm Calm - N/A   Clear
3:15 PM 22.1 °F - 16.7 °F 80% 30.13 in 10.0 mi Calm Calm - N/A   Clear
3:35 PM 20.8 °F - 16.0 °F 81% 30.14 in 10.0 mi Calm Calm - N/A   Clear
3:55 PM 20.8 °F - 15.8 °F 81% 30.15 in 10.0 mi Calm Calm - N/A   Clear
4:15 PM 19.8 °F - 14.9 °F 81% 30.16 in 10.0 mi Calm Calm - N/A   Clear
4:35 PM 20.5 °F - 15.8 °F 82% 30.17 in 10.0 mi Calm Calm - N/A   Clear
4:55 PM 18.0 °F - 14.5 °F 86% 30.18 in 10.0 mi Calm Calm - N/A   Scattered Clouds
5:15 PM 17.1 °F - 14.0 °F 88% 30.19 in 10.0 mi Calm Calm - N/A   Mostly Cloudy
5:35 PM 18.0 °F - 14.7 °F 87% 30.20 in 10.0 mi Calm Calm - N/A   Overcast
5:55 PM 16.5 °F 8.1 °F 13.6 °F 88% 30.21 in 10.0 mi North 5.8 mph - N/A   Overcast
6:15 PM 17.4 °F 10.4 °F 14.2 °F 87% 30.22 in 10.0 mi NW 4.6 mph - N/A   Mostly Cloudy
6:35 PM 15.3 °F 6.6 °F 12.9 °F 90% 30.24 in 10.0 mi North 5.8 mph - N/A   Mostly Cloudy
6:55 PM 15.6 °F 4.9 °F 12.6 °F 88% 30.25 in 10.0 mi NNW 8.1 mph - N/A   Mostly Cloudy
7:15 PM 20.8 °F 9.0 °F 18.0 °F 89% 30.26 in 10.0 mi North 11.5 mph - N/A   Clear
7:35 PM 21.7 °F 10.8 °F 16.5 °F 80% 30.27 in 10.0 mi North 10.4 mph - N/A   Clear
7:55 PM 21.9 °F 10.4 °F 16.7 °F 80% 30.28 in 10.0 mi North 11.5 mph - N/A   Clear
8:15 PM 21.0 °F 11.4 °F 15.6 °F 80% 30.29 in 10.0 mi North 8.1 mph - N/A   Clear
8:35 PM 20.8 °F 9.7 °F 15.4 °F 80% 30.30 in 10.0 mi North 10.4 mph - N/A   Clear
8:55 PM 21.2 °F 10.1 °F 15.8 °F 80% 30.32 in 10.0 mi North 10.4 mph - N/A   Clear
9:15 PM 23.5 °F 13.7 °F 18.1 °F 80% 30.33 in 10.0 mi North 9.2 mph - N/A   Mostly Cloudy
9:35 PM 22.5 °F 12.4 °F 17.4 °F 81% 30.35 in 10.0 mi WNW 9.2 mph - N/A   Overcast
9:55 PM 22.8 °F 7.0 °F 16.0 °F 75% 30.37 in 7.0 mi North 23.0 mph 31.1 mph N/A   Overcast
10:15 PM 19.4 °F 4.1 °F 12.2 °F 74% 30.38 in 10.0 mi North 18.4 mph - N/A   Scattered Clouds
10:35 PM 18.1 °F 2.9 °F 11.1 °F 74% 30.39 in 10.0 mi North 17.3 mph - N/A   Clear
10:55 PM 16.0 °F 1.7 °F 9.7 °F 76% 30.40 in 10.0 mi NNW 13.8 mph - N/A   Clear
11:15 PM 15.8 °F 0.9 °F 9.3 °F 76% 30.40 in 10.0 mi North 15.0 mph - N/A   Clear
11:35 PM 14.5 °F 1.9 °F 7.9 °F 75% 30.41 in 10.0 mi NNW 10.4 mph - N/A   Clear
11:55 PM 10.2 °F -1.7 °F 4.8 °F 79% 30.41 in 10.0 mi NW 8.1 mph - N/A   Clear